Location: Newark
(34.6283°N, 36.0776°E)
Time: 16:04:04
(UTC+00:00)

A-11 Canister half - Pass Details

Date: 17 September 2019
Orbit: 1527 x 1682 km, 47.3° (Epoch: 15 October)

Event Time Altitude Azimuth Distance (km) Brightness Sun altitude
Rises 07:37:18 0° 303° (WNW) 4,806 11.2 48.3°
Reaches altitude 10° 07:40:27 10° 307° (NW) 3,840 10.8 48.8°
Maximum altitude 07:50:11 61° 27° (NNE) 1,833 10.0 50.2°
Drops below altitude 10° 08:00:09 10° 107° (ESE) 3,930 11.8 51.5°
Sets 08:03:24 0° 111° (ESE) 4,923 12.1 51.9°
